FW8013 Weather Reports


Display with metric or nautical units.
time (UTC)temp
F
wind
direction
speed
MPH
gust
MPH
rain 1hr
in
rain 24hr
in
rain mn
in
humidity
%
barometer
mb
20260506181610 61 138 2.0 8.0 0.01 0.11 0.11 92 1007.7
20260506180100 61 336 2.0 10.0 0.01 0.11 0.11 92 1007.7
20260506174611 61 184 3.0 12.0 0.01 0.10 0.10 91 1008.0
20260506173059 61 258 3.0 12.0 0.02 0.10 0.10 91 1008.2
20260506171606 62 202 1.0 11.0 0.04 0.10 0.10 92 1008.2
20260506170104 61 261 1.0 10.0 0.06 0.10 0.10 92 1008.3
20260506164606 61 220 3.0 7.0 0.08 0.09 0.09 91 1008.1
20260506163131 61 128 2.0 9.0 0.08 0.08 0.08 91 1008.3
20260506161602 61 182 3.0 7.0 0.06 0.06 0.06 91 1008.9
20260506160108 62 124 0.0 3.0 0.04 0.04 0.04 91 1009.2
20260506154558 62 344 1.0 6.0 0.01 0.01 0.01 89 1009.5
20260506153134 63 222 2.0 6.0 0.00 0.00 0.00 88 1009.6
20260506151555 63 0 1.0 7.0 0.00 0.00 0.00 87 1009.2
20260506150052 64 194 1.0 7.0 0.00 0.00 0.00 83 1009.3
20260506144552 65 211 1.0 8.0 0.00 0.00 0.00 80 1009.4
20260506143053 66 199 3.0 14.0 0.00 0.00 0.00 76 1009.6
20260506141554 67 292 2.0 8.0 0.00 0.00 0.00 75 1009.3
20260506140053 66 216 1.0 12.0 0.00 0.00 0.00 77 1009.4
20260506134600 65 142 1.0 12.0 0.00 0.00 0.00 78 1009.3
20260506133056 66 200 3.0 11.0 0.00 0.00 0.00 77 1009.4
20260506131551 65 193 3.0 16.0 0.00 0.00 0.00 78 1009.8
20260506130050 65 307 2.0 10.0 0.00 0.00 0.00 78 1009.7
20260506124549 65 294 3.0 8.0 0.00 0.00 0.00 78 1009.7
20260506123107 65 0 4.0 12.0 0.00 0.00 0.00 78 1009.3
20260506121608 65 151 3.0 14.0 0.00 0.00 0.00 78 1009.2
20260506120053 64 340 4.0 10.0 0.00 0.00 0.00 79 1009.3
20260506114552 64 190 3.0 14.0 0.00 0.00 0.00 79 1009.2
20260506113056 64 103 2.0 8.0 0.00 0.00 0.00 79 1009.4
20260506111548 64 309 2.0 12.0 0.00 0.00 0.00 79 1009.4
20260506104550 64 145 2.0 10.0 0.00 0.00 0.00 80 1009.1
20260506103049 64 220 2.0 8.0 0.00 0.00 0.00 80 1009.0
20260506101605 64 0 2.0 6.0 0.00 0.00 0.00 80 1009.0
20260506100050 63 208 1.0 9.0 0.00 0.00 0.00 81 1009.0
20260506094553 64 113 0.0 9.0 0.00 0.01 0.00 81 1008.8
20260506093055 64 226 2.0 8.0 0.00 0.01 0.00 81 1008.8
20260506091552 64 267 1.0 11.0 0.00 0.01 0.00 80 1008.9
20260506090107 64 214 2.0 11.0 0.00 0.01 0.00 80 1009.1
20260506084616 64 0 2.0 10.0 0.00 0.01 0.00 80 1009.1
20260506083055 64 190 3.0 8.0 0.00 0.01 0.00 80 1009.1
20260506081603 64 158 3.0 10.0 0.00 0.01 0.00 80 1009.0
20260506073050 65 225 1.0 9.0 0.00 0.01 0.00 77 1009.4
20260506071552 65 236 1.0 7.0 0.00 0.01 0.00 76 1009.4
20260506061552 65 172 1.0 4.0 0.00 0.01 0.00 72 1009.9
20260506050113 67 188 1.0 9.0 0.00 0.01 0.00 68 1010.4
20260506044548 67 190 0.0 8.0 0.00 0.01 0.00 68 1010.5
20260506043050 67 192 1.0 11.0 0.00 0.01 0.00 67 1010.4
20260506041601 67 161 2.0 9.0 0.00 0.01 0.00 67 1010.3
20260506040049 67 169 2.0 9.0 0.00 0.01 0.00 67 1010.4
20260506034553 67 265 1.0 10.0 0.00 0.01 0.01 66 1010.4
20260506033053 67 192 1.0 11.0 0.00 0.01 0.01 66 1010.2
20260506031552 68 178 3.0 10.0 0.00 0.01 0.01 65 1010.1
20260506030051 68 151 2.0 12.0 0.00 0.01 0.01 64 1010.3
20260506024556 69 171 2.0 10.0 0.00 0.01 0.01 62 1010.2
20260506023105 70 186 1.0 13.0 0.00 0.01 0.01 59 1010.0
20260506021552 70 105 2.0 6.0 0.00 0.01 0.01 56 1009.9
20260506020056 71 205 3.0 8.0 0.00 0.01 0.01 54 1009.8
20260506014552 72 0 2.0 9.0 0.00 0.01 0.01 52 1009.9
20260506013056 72 232 1.0 11.0 0.00 0.01 0.01 51 1009.7
20260506011549 73 173 2.0 11.0 0.00 0.01 0.01 50 1009.6
20260506010051 73 17 3.0 11.0 0.00 0.01 0.01 50 1009.4
20260506004557 73 238 3.0 12.0 0.00 0.01 0.01 51 1009.1
20260506003053 73 219 1.0 7.0 0.00 0.01 0.01 50 1009.1
20260506001600 74 317 2.0 13.0 0.00 0.01 0.01 49 1009.0
20260506000057 75 240 3.0 7.0 0.00 0.01 0.01 47 1009.0
20260505234558 75 184 2.0 8.0 0.00 0.01 0.01 44 1008.8
20260505233059 76 219 1.0 14.0 0.00 0.01 0.01 43 1008.7
20260505231558 77 252 3.0 14.0 0.00 0.01 0.01 41 1008.6
20260505230120 77 194 4.0 10.0 0.00 0.01 0.01 40 1008.8
20260505224602 77 232 3.0 16.0 0.00 0.01 0.01 40 1008.5
20260505223058 77 188 2.0 10.0 0.00 0.01 0.01 39 1008.4
20260505221559 77 238 3.0 11.0 0.00 0.01 0.01 39 1008.5
20260505220104 78 166 2.0 9.0 0.00 0.01 0.01 38 1008.5
20260505214559 79 246 5.0 15.0 0.00 0.01 0.01 37 1008.6
20260505213100 79 311 2.0 9.0 0.00 0.01 0.01 38 1008.3
20260505211605 80 243 6.0 18.0 0.00 0.01 0.01 35 1008.0
20260505210106 80 227 7.0 17.0 0.00 0.01 0.01 35 1008.1
20260505204603 81 202 5.0 17.0 0.00 0.01 0.01 36 1008.2
20260505203102 80 334 4.0 18.0 0.00 0.01 0.01 36 1008.3
20260505201551 81 297 5.0 18.0 0.00 0.01 0.01 34 1008.2
20260505200056 81 279 7.0 18.0 0.00 0.01 0.01 38 1008.2
20260505194549 81 170 6.0 20.0 0.00 0.01 0.01 34 1008.2
20260505193100 80 209 5.0 19.0 0.00 0.01 0.01 39 1008.2
20260505191554 81 192 3.0 14.0 0.00 0.01 0.01 38 1008.5
20260505190051 81 207 4.0 20.0 0.00 0.01 0.01 39 1008.7
20260505184550 81 228 3.0 19.0 0.00 0.01 0.01 41 1008.8
20260505183050 81 252 3.0 16.0 0.00 0.01 0.01 37 1008.9